User: anonymous   Login
Location: Arran
(51.9410°N, 101.7372°W)
Time: 09:25:26
(UTC+00:00)
Language:

AO-91 - Orbit

View from above orbital plane
View from above orbital plane
View from above satellite
View from above satellite

Ground track
Ground track

The orbit data is extracted from the following two-line orbital elements,

1 43017U 17073E   23335.62296476  .00014935  00000-0  99465-3 0  9999
2 43017  97.6032 213.4170 0221993 234.8951 123.1279 14.89190550326075
Epoch (UTC): 01 December 2023 14:57:04
Eccentricity: 0.0221993
inclination: 97.6032°
perigee height: 445 km
apogee height: 755 km
right ascension of ascending node: 213.4170°
argument of perigee: 234.8951°
revolutions per day: 14.89190550
mean anomaly at epoch: 123.1279°
orbit number at epoch: 32607

The dashed part of the orbit path shows where the satellite is in the earth's shadow,  

DLR